�������l�o���
Date,Time,MP-1(��Sv/h),MP-2(��Sv/h),MP-3(��Sv/h),MP-4(��Sv/h),MP-5(��Sv/h),MP-6(��Sv/h),MP-7(��Sv/h),MP-8(��Sv/h),����,����(m/s),���J
2020/04/22,00:00,0.680,0.971,0.643,1.174,0.829,0.392,0.683,0.651,�k,4.5,��
2020/04/22,00:10,0.682,0.970,0.641,1.172,0.832,0.393,0.684,0.651,�k,4.0,��
2020/04/22,00:20,0.680,0.970,0.643,1.172,0.833,0.392,0.683,0.649,�k�k��,4.2,��
2020/04/22,00:30,0.679,0.970,0.640,1.173,0.832,0.391,0.685,0.650,�k,4.1,��
2020/04/22,00:40,0.680,0.969,0.643,1.173,0.830,0.392,0.684,0.652,�k,4.4,��
2020/04/22,00:50,0.681,0.970,0.642,1.173,0.831,0.394,0.683,0.651,�k,3.6,��
2020/04/22,01:00,0.680,0.971,0.643,1.173,0.831,0.391,0.684,0.651,�k,3.0,��
2020/04/22,01:10,0.680,0.970,0.642,1.173,0.829,0.393,0.683,0.651,�k�k��,2.6,��
2020/04/22,01:20,0.679,0.971,0.643,1.172,0.832,0.393,0.683,0.652,�k�k��,2.0,��
2020/04/22,01:30,0.682,0.970,0.642,1.173,0.829,0.392,0.682,0.651,�k,2.6,��
2020/04/22,01:40,0.679,0.969,0.640,1.174,0.832,0.391,0.684,0.650,�k�k��,1.7,��
2020/04/22,01:50,0.679,0.971,0.642,1.173,0.831,0.391,0.685,0.650,�k�k��,1.7,��
2020/04/22,02:00,0.680,0.971,0.640,1.172,0.831,0.394,0.685,0.651,���k��,1.2,��
2020/04/22,02:10,0.680,0.971,0.642,1.173,0.831,0.391,0.685,0.651,���쓌,1.4,��
2020/04/22,02:20,0.679,0.972,0.641,1.172,0.831,0.393,0.685,0.652,��,2.0,��
2020/04/22,02:30,0.680,0.970,0.643,1.173,0.831,0.393,0.684,0.651,���쓌,1.7,��
2020/04/22,02:40,0.680,0.970,0.643,1.172,0.831,0.392,0.685,0.649,�쓌,2.0,��
2020/04/22,02:50,0.680,0.969,0.642,1.175,0.832,0.392,0.685,0.651,��,2.6,��
2020/04/22,03:00,0.681,0.971,0.642,1.172,0.831,0.392,0.683,0.651,��,4.4,��
2020/04/22,03:10,0.681,0.971,0.642,1.173,0.829,0.392,0.684,0.651,��쓌,3.7,��
2020/04/22,03:20,0.680,0.969,0.642,1.175,0.831,0.391,0.686,0.650,��,3.7,��
2020/04/22,03:30,0.681,0.969,0.642,1.173,0.831,0.392,0.683,0.651,��,3.6,��
2020/04/22,03:40,0.681,0.971,0.641,1.175,0.828,0.393,0.684,0.651,��,4.3,��
2020/04/22,03:50,0.680,0.970,0.643,1.173,0.831,0.393,0.682,0.649,��,3.7,��
2020/04/22,04:00,0.681,0.968,0.642,1.173,0.831,0.393,0.684,0.651,��,4.5,��
2020/04/22,04:10,0.680,0.970,0.643,1.174,0.831,0.393,0.685,0.651,��,4.2,��
2020/04/22,04:20,0.682,0.972,0.642,1.174,0.832,0.393,0.684,0.652,��,4.7,��
2020/04/22,04:30,0.679,0.970,0.642,1.174,0.831,0.392,0.684,0.651,��,4.8,�L
2020/04/22,04:40,0.680,0.968,0.643,1.176,0.832,0.393,0.684,0.651,��,4.6,��
2020/04/22,04:50,0.680,0.969,0.641,1.174,0.831,0.392,0.684,0.650,��,4.9,��
2020/04/22,05:00,0.681,0.971,0.640,1.173,0.830,0.393,0.683,0.651,��,4.9,��
2020/04/22,05:10,0.680,0.970,0.642,1.174,0.833,0.394,0.684,0.650,��,5.3,��
2020/04/22,05:20,0.680,0.972,0.643,1.174,0.832,0.394,0.685,0.651,��,4.6,��
2020/04/22,05:30,0.681,0.970,0.642,1.173,0.833,0.394,0.685,0.651,��,4.7,��
2020/04/22,05:40,0.679,0.969,0.643,1.174,0.833,0.395,0.684,0.649,��,5.9,��
2020/04/22,05:50,0.681,0.971,0.642,1.174,0.832,0.394,0.686,0.651,��,5.6,�L
2020/04/22,06:00,0.682,0.970,0.644,1.175,0.832,0.394,0.685,0.653,��,6.3,�L
2020/04/22,06:10,0.681,0.971,0.643,1.175,0.832,0.393,0.684,0.651,��,5.0,�L
2020/04/22,06:20,0.683,0.971,0.643,1.175,0.832,0.394,0.684,0.650,��,6.0,�L
2020/04/22,06:30,0.683,0.971,0.643,1.173,0.832,0.393,0.685,0.652,��,6.3,�L
2020/04/22,06:40,0.683,0.969,0.645,1.174,0.834,0.394,0.684,0.650,��,4.8,��
2020/04/22,06:50,0.683,0.972,0.644,1.174,0.834,0.394,0.684,0.652,��,4.9,�L
2020/04/22,07:00,0.684,0.973,0.643,1.174,0.832,0.395,0.686,0.652,��,5.1,�L
2020/04/22,07:10,0.681,0.971,0.643,1.176,0.832,0.393,0.685,0.651,��,6.1,��
2020/04/22,07:20,0.683,0.970,0.643,1.174,0.833,0.394,0.686,0.652,��,5.5,��
2020/04/22,07:30,0.685,0.970,0.643,1.178,0.834,0.394,0.686,0.653,��쐼,2.9,��
2020/04/22,07:40,0.685,0.973,0.645,1.177,0.834,0.395,0.686,0.651,��쐼,3.4,��
2020/04/22,07:50,0.683,0.972,0.646,1.177,0.833,0.395,0.685,0.652,��쐼,3.4,��
2020/04/22,08:00,0.684,0.973,0.645,1.175,0.833,0.395,0.685,0.652,�쐼,2.3,��
2020/04/22,08:10,0.686,0.973,0.643,1.176,0.835,0.395,0.685,0.654,�쐼,1.5,�L
2020/04/22,08:20,0.682,0.972,0.644,1.177,0.834,0.397,0.685,0.651,���쐼,2.6,�L
2020/04/22,08:30,0.683,0.970,0.644,1.177,0.835,0.395,0.685,0.652,��,2.6,��
2020/04/22,08:40,0.683,0.969,0.644,1.175,0.835,0.394,0.684,0.651,���k��,3.0,��
2020/04/22,08:50,0.684,0.971,0.644,1.175,0.833,0.395,0.685,0.653,���k��,3.9,��
2020/04/22,09:00,0.684,0.970,0.646,1.175,0.833,0.395,0.685,0.651,��,3.5,��
2020/04/22,09:10,0.685,0.968,0.643,1.175,0.832,0.394,0.683,0.652,���k��,4.1,��
2020/04/22,09:20,0.685,0.969,0.644,1.178,0.835,0.395,0.685,0.652,�k��,4.2,��
2020/04/22,09:30,0.683,0.968,0.644,1.175,0.834,0.394,0.684,0.649,�k��,6.8,��
2020/04/22,09:40,0.685,0.967,0.644,1.177,0.834,0.395,0.684,0.651,���k��,3.9,��
2020/04/22,09:50,0.685,0.967,0.645,1.177,0.834,0.394,0.684,0.650,��,5.7,��
2020/04/22,10:00,0.684,0.970,0.644,1.180,0.834,0.394,0.686,0.650,��,6.7,��
2020/04/22,10:10,0.687,0.966,0.644,1.177,0.835,0.396,0.684,0.650,���k��,6.9,��
2020/04/22,10:20,0.685,0.969,0.645,1.176,0.834,0.393,0.687,0.650,�k��,8.1,��
2020/04/22,10:30,0.684,0.966,0.644,1.180,0.831,0.395,0.685,0.652,���k��,10.3,��
2020/04/22,10:40,0.681,0.967,0.642,1.179,0.831,0.393,0.684,0.650,�k��,10.5,��
2020/04/22,10:50,0.680,0.968,0.642,1.179,0.831,0.392,0.686,0.648,���k��,10.6,��
2020/04/22,11:00,0.682,0.969,0.642,1.179,0.830,0.393,0.687,0.649,�k��,11.6,��
2020/04/22,11:10,0.680,0.969,0.644,1.178,0.832,0.395,0.685,0.651,�k��,12.1,��
2020/04/22,11:20,0.681,0.969,0.643,1.178,0.833,0.395,0.685,0.649,���k��,10.9,��
2020/04/22,11:30,0.683,0.970,0.644,1.181,0.832,0.394,0.686,0.651,���k��,10.5,��
2020/04/22,11:40,0.682,0.970,0.646,1.179,0.833,0.394,0.686,0.648,���k��,9.9,��
2020/04/22,11:50,0.683,0.970,0.645,1.180,0.833,0.394,0.686,0.651,���k��,8.3,��
2020/04/22,12:00,0.683,0.971,0.646,1.181,0.834,0.394,0.684,0.650,���k��,6.7,��
2020/04/22,12:10,0.685,0.973,0.646,1.181,0.833,0.394,0.687,0.651,���k��,8.2,��
2020/04/22,12:20,0.682,0.974,0.646,1.182,0.834,0.395,0.685,0.651,���k��,9.0,��
2020/04/22,12:30,0.683,0.973,0.646,1.181,0.835,0.393,0.685,0.651,�k��,8.0,��
2020/04/22,12:40,0.684,0.974,0.646,1.181,0.835,0.395,0.685,0.650,���k��,9.1,��
2020/04/22,12:50,0.683,0.974,0.644,1.181,0.833,0.394,0.687,0.650,���k��,9.7,��
2020/04/22,13:00,0.683,0.968,0.645,1.183,0.835,0.395,0.686,0.650,���k��,6.4,��
2020/04/22,13:10,0.684,0.972,0.644,1.181,0.833,0.394,0.685,0.653,�k��,10.2,��
2020/04/22,13:20,0.685,0.972,0.647,1.182,0.833,0.394,0.686,0.648,���k��,10.5,��
2020/04/22,13:30,0.684,0.970,0.646,1.183,0.834,0.395,0.684,0.649,�k��,7.7,��
2020/04/22,13:40,0.683,0.972,0.646,1.184,0.835,0.396,0.684,0.649,�k��,8.0,��
2020/04/22,13:50,0.685,0.969,0.645,1.183,0.836,0.393,0.683,0.650,�k��,9.1,��
2020/04/22,14:00,0.685,0.969,0.645,1.183,0.834,0.395,0.685,0.651,���k��,8.2,��
2020/04/22,14:10,0.684,0.972,0.645,1.182,0.833,0.393,0.685,0.650,�k��,10.3,��
2020/04/22,14:20,0.684,0.973,0.646,1.183,0.834,0.395,0.685,0.651,�k��,9.4,��
2020/04/22,14:30,0.685,0.975,0.645,1.183,0.836,0.395,0.687,0.652,�k��,6.5,��
2020/04/22,14:40,0.683,0.977,0.646,1.182,0.838,0.394,0.685,0.652,�k��,6.0,��
2020/04/22,14:50,0.683,0.976,0.645,1.184,0.836,0.396,0.687,0.654,�k��,7.6,��
2020/04/22,15:00,0.684,0.978,0.647,1.184,0.838,0.394,0.685,0.652,�k��,11.3,��
2020/04/22,15:10,0.684,0.976,0.645,1.181,0.837,0.395,0.688,0.654,�k��,11.3,��
2020/04/22,15:20,0.685,0.979,0.646,1.184,0.837,0.394,0.686,0.653,�k��,9.8,��
2020/04/22,15:30,0.685,0.979,0.644,1.181,0.838,0.395,0.688,0.653,�k��,6.0,��
2020/04/22,15:40,0.685,0.980,0.645,1.183,0.838,0.394,0.685,0.653,�k��,6.2,��
2020/04/22,15:50,0.687,0.978,0.647,1.184,0.838,0.394,0.685,0.651,�k��,7.5,��
2020/04/22,16:00,0.686,0.978,0.647,1.183,0.838,0.394,0.685,0.652,���k��,7.7,��
2020/04/22,16:10,0.687,0.979,0.646,1.185,0.837,0.394,0.685,0.653,�k��,7.8,��
2020/04/22,16:20,0.684,0.980,0.647,1.183,0.839,0.394,0.685,0.653,�k��,6.1,��
2020/04/22,16:30,0.685,0.979,0.646,1.184,0.836,0.395,0.685,0.652,�k��,7.2,��
2020/04/22,16:40,0.686,0.980,0.645,1.182,0.838,0.395,0.684,0.653,�k��,9.0,��
2020/04/22,16:50,0.686,0.979,0.647,1.184,0.839,0.395,0.685,0.654,���k��,7.3,��
2020/04/22,17:00,0.686,0.980,0.647,1.183,0.837,0.394,0.687,0.653,�k��,6.9,��
2020/04/22,17:10,0.686,0.983,0.644,1.183,0.839,0.393,0.686,0.652,�k��,7.1,��
2020/04/22,17:20,0.685,0.979,0.648,1.186,0.836,0.393,0.685,0.653,�k��,6.3,��
2020/04/22,17:30,0.687,0.980,0.649,1.184,0.838,0.393,0.686,0.653,�k��,7.4,��
2020/04/22,17:40,0.687,0.982,0.647,1.186,0.838,0.394,0.685,0.653,�k��,11.6,��
2020/04/22,17:50,0.685,0.980,0.647,1.187,0.838,0.393,0.685,0.654,���k��,13.3,��
2020/04/22,18:00,0.686,0.981,0.646,1.185,0.838,0.394,0.686,0.653,�k��,6.0,��
2020/04/22,18:10,0.686,0.979,0.645,1.185,0.838,0.394,0.682,0.653,�k��,6.4,��
2020/04/22,18:20,0.684,0.982,0.645,1.186,0.839,0.394,0.687,0.654,�k��,6.6,��
2020/04/22,18:30,0.684,0.979,0.646,1.185,0.839,0.394,0.682,0.653,�k��,9.5,��
2020/04/22,18:40,0.687,0.981,0.647,1.184,0.839,0.395,0.686,0.653,�k�k��,6.2,��
2020/04/22,18:50,0.684,0.979,0.647,1.188,0.838,0.393,0.685,0.652,�k��,3.2,��
2020/04/22,19:00,0.684,0.980,0.646,1.183,0.838,0.393,0.684,0.652,�k�k��,4.1,��
2020/04/22,19:10,0.683,0.981,0.645,1.187,0.839,0.395,0.687,0.652,���k��,3.8,��
2020/04/22,19:20,0.685,0.979,0.645,1.189,0.839,0.394,0.687,0.653,�k�k��,4.7,��
2020/04/22,19:30,0.686,0.979,0.646,1.186,0.838,0.394,0.687,0.652,�k,2.6,��
2020/04/22,19:40,0.686,0.981,0.647,1.187,0.838,0.393,0.688,0.652,���k��,4.0,��
2020/04/22,19:50,0.685,0.981,0.646,1.185,0.839,0.394,0.687,0.653,���k��,4.3,��
2020/04/22,20:00,0.683,0.981,0.647,1.185,0.837,0.393,0.687,0.651,���k��,3.6,��
2020/04/22,20:10,0.682,0.979,0.645,1.185,0.838,0.394,0.688,0.653,�k��,2.0,��
2020/04/22,20:20,0.684,0.979,0.644,1.184,0.838,0.393,0.685,0.652,�k��,2.6,��
2020/04/22,20:30,0.685,0.980,0.646,1.185,0.837,0.394,0.687,0.652,�k�k��,1.4,��
2020/04/22,20:40,0.684,0.979,0.646,1.184,0.837,0.394,0.688,0.651,�k,3.0,��
2020/04/22,20:50,0.682,0.981,0.646,1.185,0.837,0.393,0.686,0.651,�k�k��,2.8,��
2020/04/22,21:00,0.684,0.980,0.644,1.185,0.839,0.393,0.687,0.651,�k�k��,2.5,��
2020/04/22,21:10,0.684,0.980,0.645,1.184,0.840,0.394,0.687,0.652,�k,3.3,��
2020/04/22,21:20,0.684,0.980,0.645,1.185,0.838,0.393,0.687,0.652,�k,4.7,��
2020/04/22,21:30,0.681,0.980,0.644,1.187,0.838,0.394,0.687,0.652,�k�k��,3.8,��
2020/04/22,21:40,0.684,0.978,0.647,1.186,0.839,0.395,0.686,0.652,�k�k��,3.4,��
2020/04/22,21:50,0.681,0.979,0.645,1.186,0.838,0.393,0.688,0.652,���k��,3.2,��
2020/04/22,22:00,0.683,0.978,0.644,1.185,0.837,0.393,0.687,0.651,��,3.5,��
2020/04/22,22:10,0.682,0.980,0.644,1.184,0.837,0.394,0.687,0.653,���쐼,3.8,��
2020/04/22,22:20,0.682,0.981,0.644,1.185,0.838,0.392,0.685,0.651,��,3.7,��
2020/04/22,22:30,0.682,0.978,0.644,1.184,0.840,0.394,0.688,0.650,���k��,4.2,��
2020/04/22,22:40,0.684,0.977,0.644,1.186,0.837,0.394,0.686,0.653,�k��,4.3,��
2020/04/22,22:50,0.684,0.978,0.646,1.184,0.838,0.394,0.687,0.653,�k�k��,3.9,��
2020/04/22,23:00,0.681,0.977,0.644,1.186,0.840,0.394,0.687,0.652,�k��,3.2,��
2020/04/22,23:10,0.683,0.981,0.645,1.187,0.840,0.395,0.686,0.651,��,4.1,��
2020/04/22,23:20,0.682,0.980,0.646,1.183,0.838,0.392,0.687,0.653,���k��,3.5,��
2020/04/22,23:30,0.683,0.979,0.646,1.186,0.837,0.394,0.687,0.652,���k��,4.3,��
2020/04/22,23:40,0.684,0.980,0.645,1.185,0.838,0.395,0.686,0.653,���k��,4.7,��
2020/04/22,23:50,0.682,0.979,0.645,1.187,0.839,0.395,0.686,0.653,�k��,4.1,��
